Wind_Speed
39 39 39 40 42 43 44 45 46 48 49 49 47 43 41 46 51 61 60 56 59 52 47 30 33 27 26 31 32 32 32 29 25 22 24 23 22 24 26 29 29 26 22
42 41 41 43 44 44 44 44 44 43 42 42 43 45 38 36 36 46 50 47 47 45 42 50 35 27 30 34 33 34 31 28 26 24 22 23 23 23 27 27 26 27 18
44 41 40 41 43 46 47 47 47 46 45 44 42 40 41 34 34 41 56 42 44 40 41 37 26 28 29 38 35 33 31 28 27 24 19 21 24 23 26 25 26 19 16
39 40 39 39 42 44 44 46 50 52 50 47 45 43 40 40 38 40 35 44 40 34 38 37 31 31 34 38 32 35 33 26 25 23 22 20 22 24 24 25 24 19 16
43 42 45 49 51 49 48 49 47 48 51 52 49 45 43 40 35 34 36 34 31 30 34 32 34 34 35 34 33 37 30 25 22 20 23 22 23 25 24 24 23 19 17
52 48 45 47 52 53 55 54 52 50 48 50 52 50 45 42 41 39 40 38 36 41 38 37 37 31 32 33 33 32 28 23 24 19 23 22 22 24 25 27 23 19 17
57 59 62 66 59 55 61 60 58 54 52 48 52 52 51 47 43 43 39 37 37 39 38 35 33 29 31 33 30 27 27 23 23 22 23 23 24 24 26 25 21 18 17
67 70 68 64 66 63 61 63 67 64 62 56 51 54 54 51 49 44 39 36 38 39 38 32 30 32 32 30 27 27 25 23 23 24 23 23 24 25 22 22 19 16 16
63 61 59 64 66 69 70 68 66 66 65 61 55 52 54 54 51 48 41 38 41 41 38 33 33 34 31 28 23 25 24 22 22 23 23 23 24 23 23 20 16 14 14
60 61 62 64 66 66 66 66 59 61 69 69 61 56 52 58 53 49 46 43 43 43 39 36 37 31 27 26 24 24 23 21 23 23 23 24 25 23 20 16 14 15 15
61 64 62 57 58 61 60 63 63 58 56 58 60 57 51 55 54 49 50 47 44 43 40 38 32 26 25 24 25 23 23 24 24 23 23 23 21 15 16 14 14 16 15
55 55 54 53 53 50 42 37 39 47 52 56 59 58 51 49 52 51 53 49 44 42 40 41 28 22 24 25 24 23 24 24 24 24 24 24 19 18 18 16 15 16 14
48 46 46 42 40 34 35 42 42 49 55 52 61 57 51 51 48 49 53 49 46 41 40 36 30 24 25 24 24 24 25 25 23 23 25 21 17 17 15 14 14 15 14
42 42 40 39 37 37 40 44 36 32 35 46 56 59 56 53 47 50 53 48 42 41 39 30 24 25 24 25 24 24 25 24 24 24 21 19 16 22 19 16 15 14 15
40 40 39 35 32 42 39 32 29 27 33 44 58 58 51 46 49 51 50 42 39 38 32 26 25 24 25 24 23 23 23 23 22 21 18 17 18 14 19 16 16 15 13
40 38 34 34 30 30 35 33 31 28 37 44 52 52 47 48 52 53 46 41 40 35 28 25 25 24 23 23 22 21 20 20 19 17 18 18 18 16 13 13 13 13 12
44 38 28 23 24 22 36 39 36 35 39 48 54 50 50 50 52 47 44 39 35 30 26 25 22 20 21 20 18 18 17 15 14 14 15 17 18 17 15 11 11 10 9
24 21 20 22 20 22 38 40 40 31 41 55 50 51 53 52 46 44 39 36 30 28 26 21 20 20 19 18 16 15 12 11 11 11 11 10 12 13 11 10 9 7 9
19 17 16 18 20 24 29 35 35 40 51 57 57 58 50 45 40 39 35 31 28 25 22 21 20 19 18 14 12 11 10 12 11 9 7 7 9 10 9 9 7 8 7
36 33 30 24 31 34 42 44 56 63 66 64 59 48 36 31 40 36 32 29 25 22 22 21 19 17 14 11 10 10 12 13 12 12 10 10 10 10 9 7 7 6 6
48 44 43 39 40 45 57 55 64 53 47 38 47 45 41 35 33 31 28 26 23 22 22 20 16 15 14 13 12 12 14 14 12 11 10 10 9 7 6 6 7 7 7
28 34 30 31 32 40 30 42 37 38 40 43 43 41 38 34 29 25 24 22 23 23 20 17 17 17 17 16 15 16 16 15 13 10 8 7 7 7 7 6 6 6 5
37 37 38 39 36 46 36 32 35 35 33 33 31 28 25 23 21 21 22 23 23 20 18 18 17 16 17 17 17 16 14 13 12 12 11 10 9 9 7 6 6 5 5
31 31 32 32 35 35 31 28 27 26 25 24 22 21 22 23 25 26 23 20 18 19 20 21 19 18 19 18 18 17 16 14 13 12 11 11 8 8 7 5 4 4 7
23 22 22 23 24 24 26 25 24 23 22 23 22 22 23 22 20 18 17 18 20 20 20 21 21 19 20 20 19 17 16 15 15 14 12 9 7 7 6 6 5 7 10
20 21 23 22 24 22 23 23 22 22 22 22 22 20 18 17 18 18 19 19 19 21 22 22 23 22 21 20 19 18 17 16 13 12 11 10 8 6 6 7 10 14 16
Wind_Direction
244 241 241 242 244 247 250 251 252 253 254 253 259 268 269 256 251 259 264 258 265 264 265 265 282 265 276 264 268 274 279 291 299 300 301 311 313 311 315 316 310 307 309
241 241 242 244 244 245 247 249 250 252 252 253 254 255 264 249 238 245 249 243 239 247 258 272 259 269 266 263 268 272 283 292 292 292 301 311 306 311 313 311 306 308 306
244 245 246 246 246 247 246 248 248 247 248 249 249 249 247 250 247 246 234 233 240 235 242 245 257 268 269 265 271 274 277 284 289 287 303 300 300 307 311 305 301 299 304
243 245 245 250 253 250 248 248 247 247 248 248 245 245 245 240 240 241 241 232 232 234 239 249 255 258 256 258 268 270 273 279 284 294 298 293 298 304 307 299 297 290 299
248 254 257 261 261 255 253 251 248 249 247 247 247 245 243 243 242 244 239 239 240 239 241 232 238 237 250 258 262 263 274 277 280 288 288 291 297 304 302 292 288 288 281
255 251 252 258 252 257 258 254 253 251 245 248 245 245 242 240 238 240 240 237 228 231 228 224 231 237 245 252 256 264 273 277 275 282 285 289 293 300 295 288 286 285 279
253 256 261 265 260 252 255 254 256 251 249 243 243 240 239 237 236 237 237 234 228 230 223 223 232 237 241 249 255 265 270 269 276 279 285 285 289 298 290 282 288 283 281
263 266 266 266 264 265 258 250 245 250 251 247 243 238 235 233 232 233 231 234 229 230 233 229 235 240 244 245 249 261 263 264 270 275 281 284 293 294 285 282 286 277 282
266 264 263 265 265 263 263 256 251 245 248 247 241 239 233 230 230 228 227 229 230 232 235 232 233 237 244 248 248 255 257 261 269 278 277 282 287 286 283 284 273 266 277
259 260 263 266 259 258 256 256 255 249 244 242 238 235 231 227 227 226 224 223 229 231 234 230 235 235 238 247 250 253 259 265 272 271 274 283 286 283 280 279 258 254 273
259 264 265 259 256 257 256 252 250 247 240 237 233 228 230 226 224 222 219 222 226 230 229 238 234 223 236 243 246 251 259 264 267 266 270 276 279 282 279 268 255 253 266
254 254 257 256 252 253 249 242 246 244 244 242 228 221 225 222 221 217 215 218 223 226 229 233 231 225 235 239 244 252 255 263 260 264 266 269 275 276 276 257 254 257 259
252 251 248 244 242 243 257 262 260 249 250 236 219 213 215 217 215 213 211 216 219 220 228 229 223 224 235 241 246 251 258 255 258 262 264 265 269 269 261 252 249 258 254
241 242 240 245 249 245 259 260 245 248 234 210 197 207 211 215 209 207 206 212 215 219 225 216 215 226 234 240 245 252 253 256 260 261 258 263 257 261 243 249 242 253 254
238 239 243 242 252 248 253 229 223 217 194 194 190 193 199 202 200 199 203 208 216 223 209 210 221 224 233 242 249 251 252 254 253 254 253 249 248 267 239 228 238 250 258
230 232 233 237 248 248 229 198 203 199 188 191 187 192 197 193 190 192 198 202 210 204 205 214 219 227 237 243 246 247 248 248 244 246 243 232 237 234 227 234 239 250 260
224 230 244 240 240 237 207 192 188 195 196 194 193 190 186 188 185 190 195 198 190 192 203 213 219 231 236 242 242 242 233 234 237 237 236 231 238 226 238 240 247 246 259
203 228 225 216 217 208 197 190 195 200 193 191 182 177 178 178 182 189 184 180 181 192 202 212 225 228 233 233 229 221 225 224 226 234 230 225 213 219 226 235 236 247 261
151 157 169 174 176 177 183 190 193 184 170 170 168 168 168 173 172 174 168 174 183 194 205 215 219 219 224 214 211 212 210 215 217 204 191 190 204 214 217 217 237 251 261
100 101 108 128 143 150 157 163 159 155 157 157 159 163 155 164 169 169 171 177 187 199 207 211 207 211 202 200 203 201 208 206 198 189 191 194 192 196 206 230 243 245 257
110 110 113 118 129 139 143 147 148 148 151 126 136 151 155 160 165 169 173 185 195 201 203 200 199 195 195 200 199 195 201 198 195 191 184 190 199 202 205 219 237 253 258
113 127 116 133 135 148 129 127 140 134 129 138 141 151 160 165 167 170 179 187 194 196 192 192 193 197 201 198 193 188 182 182 183 185 190 194 192 204 217 238 238 231 225
107 104 114 112 120 117 117 121 133 137 138 140 146 152 158 162 166 171 180 185 186 186 187 186 188 191 191 187 186 186 183 178 177 180 183 191 206 219 222 199 205 231 267
111 117 117 114 124 119 124 137 139 141 145 151 155 161 167 169 172 175 178 181 186 188 185 181 181 184 180 178 180 179 178 179 186 192 196 198 189 175 188 219 252 279 287
118 126 124 130 133 135 137 140 149 155 160 162 161 161 164 167 167 171 176 182 188 186 182 181 181 178 175 179 181 183 187 191 197 195 192 186 186 198 209 233 262 296 307
121 124 132 133 140 143 146 148 149 151 153 153 155 157 159 161 166 169 177 176 179 177 176 176 180 181 182 184 186 187 188 191 190 188 189 196 197 218 248 278 297 304 302
Height
5685 5689 5692 5695 5698 5701 5706 5710 5714 5717 5721 5725 5726 5727 5727 5730 5736 5743 5750 5756 5762 5765 5767 5771 5775 5775 5774 5775 5775 5774 5769 5766 5765 5764 5762 5755 5755 5753 5750 5747 5745 5741 5735
5674 5678 5681 5684 5687 5690 5693 5697 5702 5706 5709 5714 5716 5718 5720 5721 5725 5733 5739 5743 5749 5754 5756 5762 5766 5765 5766 5768 5768 5765 5762 5760 5759 5759 5755 5749 5749 5747 5745 5742 5740 5736 5731
5663 5667 5670 5672 5675 5679 5684 5688 5691 5695 5699 5703 5706 5708 5712 5714 5718 5722 5729 5732 5737 5743 5748 5753 5755 5756 5760 5759 5759 5758 5754 5755 5754 5751 5745 5744 5743 5743 5741 5738 5736 5732 5728
5647 5651 5654 5658 5662 5667 5671 5675 5678 5682 5687 5691 5696 5699 5701 5707 5712 5716 5717 5721 5725 5733 5738 5740 5745 5746 5748 5749 5750 5749 5749 5748 5746 5743 5741 5739 5738 5737 5735 5734 5731 5728 5725
5635 5638 5641 5643 5647 5652 5656 5660 5665 5669 5673 5677 5682 5687 5691 5694 5699 5703 5708 5713 5716 5722 5724 5729 5735 5735 5736 5739 5742 5742 5741 5740 5737 5735 5736 5734 5732 5732 5730 5729 5726 5723 5721
5617 5622 5625 5629 5632 5635 5640 5646 5650 5654 5660 5663 5669 5674 5680 5685 5690 5695 5699 5706 5711 5712 5714 5720 5723 5723 5727 5731 5732 5733 5734 5732 5732 5728 5730 5727 5726 5725 5724 5723 5720 5718 5717
5601 5604 5609 5611 5617 5622 5624 5628 5633 5639 5643 5650 5655 5661 5668 5675 5680 5685 5690 5695 5700 5700 5704 5707 5710 5713 5717 5721 5722 5725 5727 5725 5724 5723 5724 5723 5722 5720 5719 5717 5714 5713 5712
5583 5586 5589 5591 5593 5598 5603 5610 5616 5620 5626 5634 5641 5648 5655 5662 5668 5674 5679 5685 5688 5691 5694 5697 5699 5704 5708 5709 5714 5718 5718 5717 5717 5719 5718 5716 5716 5715 5713 5711 5709 5709 5709
5565 5568 5570 5572 5574 5577 5581 5589 5596 5600 5606 5615 5625 5633 5641 5649 5655 5662 5669 5674 5679 5683 5687 5690 5692 5695 5700 5702 5707 5709 5711 5711 5711 5712 5712 5710 5711 5709 5707 5705 5705 5706 5706
5547 5549 5550 5552 5554 5556 5560 5564 5570 5576 5585 5593 5608 5617 5626 5634 5641 5650 5660 5663 5669 5676 5682 5680 5684 5690 5692 5695 5699 5702 5704 5703 5705 5707 5706 5706 5705 5703 5701 5700 5702 5703 5703
5525 5527 5528 5530 5533 5536 5539 5543 5549 5556 5564 5575 5590 5602 5611 5620 5629 5638 5648 5655 5663 5670 5673 5668 5678 5679 5685 5689 5693 5696 5697 5698 5700 5700 5700 5701 5700 5697 5697 5698 5698 5699 5700
5503 5506 5510 5513 5516 5520 5522 5526 5530 5535 5543 5555 5572 5586 5597 5606 5617 5627 5636 5647 5655 5661 5663 5668 5670 5673 5680 5683 5686 5689 5692 5692 5693 5694 5694 5695 5694 5693 5693 5694 5695 5696 5697
5485 5490 5495 5498 5501 5504 5508 5512 5516 5520 5525 5534 5551 5571 5585 5593 5605 5616 5627 5638 5646 5652 5656 5661 5664 5670 5676 5679 5681 5684 5685 5685 5686 5687 5689 5689 5688 5688 5689 5690 5692 5693 5694
5471 5476 5481 5485 5489 5493 5497 5498 5502 5506 5507 5518 5536 5558 5570 5583 5597 5608 5619 5630 5639 5645 5649 5653 5660 5665 5669 5673 5675 5677 5679 5679 5680 5682 5682 5682 5684 5684 5686 5687 5689 5690 5691
5459 5465 5470 5475 5478 5481 5484 5488 5493 5499 5504 5513 5528 5546 5562 5577 5589 5601 5613 5624 5634 5641 5644 5649 5657 5661 5664 5667 5669 5670 5672 5673 5675 5675 5675 5678 5679 5678 5681 5684 5686 5687 5688
5448 5454 5460 5464 5466 5469 5473 5481 5490 5498 5509 5518 5528 5544 5559 5572 5583 5594 5606 5617 5626 5634 5640 5647 5652 5657 5660 5662 5663 5664 5666 5667 5668 5668 5670 5673 5675 5677 5679 5682 5684 5685 5685
5438 5444 5450 5454 5457 5460 5467 5478 5488 5496 5505 5516 5528 5542 5555 5567 5580 5592 5603 5612 5621 5629 5638 5644 5648 5651 5654 5656 5658 5660 5660 5662 5663 5664 5666 5669 5671 5674 5677 5680 5682 5682 5682
5434 5440 5444 5448 5452 5456 5464 5474 5483 5492 5499 5513 5528 5542 5555 5569 5582 5592 5601 5609 5618 5628 5635 5639 5644 5647 5650 5651 5653 5654 5655 5657 5659 5662 5664 5666 5669 5673 5676 5677 5678 5679 5679
5434 5439 5443 5446 5451 5457 5464 5474 5483 5490 5502 5516 5529 5545 5559 5572 5582 5591 5600 5609 5618 5625 5631 5636 5640 5644 5645 5646 5648 5650 5653 5656 5659 5661 5663 5666 5668 5671 5673 5675 5675 5675 5676
5447 5452 5455 5458 5460 5467 5473 5480 5487 5497 5508 5521 5536 5550 5559 5575 5585 5593 5600 5609 5617 5624 5629 5634 5637 5639 5641 5643 5645 5648 5651 5655 5658 5660 5662 5664 5667 5668 5670 5671 5672 5672 5672
5470 5476 5479 5483 5487 5489 5494 5500 5510 5516 5523 5526 5540 5556 5570 5582 5589 5595 5602 5610 5616 5621 5627 5630 5632 5634 5637 5640 5643 5647 5651 5654 5656 5658 5660 5662 5664 5666 5667 5668 5668 5668 5669
5492 5495 5496 5497 5501 5508 5512 5519 5525 5531 5538 5546 5551 5563 5574 5582 5589 5596 5602 5608 5614 5619 5622 5625 5627 5631 5635 5638 5642 5647 5650 5652 5654 5657 5659 5661 5662 5663 5664 5665 5665 5666 5666
5507 5509 5512 5514 5515 5518 5523 5529 5537 5543 5549 5555 5564 5572 5579 5584 5590 5595 5601 5607 5611 5615 5617 5621 5626 5630 5633 5637 5641 5645 5648 5650 5653 5655 5656 5658 5659 5661 5662 5663 5664 5664 5665
5519 5522 5523 5522 5528 5531 5534 5542 5546 5551 5557 5563 5568 5574 5580 5585 5591 5596 5599 5603 5608 5612 5616 5620 5625 5628 5632 5636 5640 5644 5646 5649 5651 5653 5655 5656 5658 5659 5661 5663 5663 5663 5663
5529 5530 5531 5533 5536 5540 5544 5549 5555 5560 5564 5568 5573 5578 5582 5586 5589 5593 5598 5603 5607 5611 5615 5620 5624 5628 5631 5635 5638 5641 5644 5647 5649 5651 5653 5655 5657 5658 5659 5659 5660 5660 5659
5534 5536 5539 5542 5545 5549 5553 5556 5560 5563 5567 5571 5575 5578 5582 5585 5590 5594 5598 5601 5606 5610 5615 5619 5623 5627 5630 5633 5636 5639 5642 5645 5647 5649 5651 5653 5655 5656 5656 5656 5656 5655 5654